[[{"header":{"parameterUnit":"m.s-1","parameterCategory":1,"la1":30.2991,"la2":30.254,"lo1":-89.0895,"lo2":-89.0444,"dy":0.0017,"dx":0.0017,"nx":28,"ny":28,"refTime":"2025-02-23T03:00:00:Z","depth":0,"parameterNumber":2,"parameterNumberName":"U-component_of_WINDS"},"data":[0,0,0,0,0,0,0,0,0,0,0,0,0,0,0,0,0,0,0,0,0,0,0,0,0,0,0,0,0,0,0,0,0,0,0,0,0,0,0,0,0,0,0,0,0,0,0,0,0,0,0,0,0,0,0,0,0,0,-7.4849,-7.4848,0,-7.4802,-7.4802,-7.4801,-7.4571,-7.4565,-7.456,-7.4555,-7.451,-7.4514,-7.4518,0,0,0,0,0,0,0,0,0,0,0,0,0,-7.4741,-7.4744,-7.4849,-7.4848,-7.4848,-7.4802,-7.4802,-7.4801,-7.4572,-7.4565,-7.4559,-7.4552,-7.4509,-7.4514,-7.4519,0,0,0,0,0,0,0,0,0,0,0,0,0,-7.4751,-7.4745,-7.4849,-7.4728,-7.4716,-7.4802,-7.4802,-7.4801,-7.4573,-7.4565,-7.4557,-7.4549,-7.4508,-7.4513,-7.4519,-7.4719,0,0,-7.4537,-7.454,0,0,0,0,0,0,0,0,-7.4751,-7.4755,-7.4746,-7.4736,-7.4724,-7.4684,-7.4747,-7.4774,-7.4575,-7.4628,-7.4555,-7.4545,-7.4575,-7.4575,-7.4584,-7.4717,-7.4715,-7.4538,-7.4541,-7.4544,-7.4545,0,0,0,0,0,0,0,-7.475,-7.4756,-7.483,-7.4746,-7.4733,-7.4676,-7.4669,-7.4751,-7.4648,-7.4623,-7.4606,-7.4603,-7.4567,-7.4579,-7.4581,-7.4715,-7.4537,-7.4543,-7.4546,-7.4549,-7.5008,-7.5016,0,0,0,0,0,0,-7.4766,-7.4757,-7.4832,-7.4829,-7.4717,-7.4685,-7.4676,-7.4705,-7.4646,-7.463,-7.461,-7.4593,-7.4573,-7.4575,-7.4579,-7.4807,-7.4544,-7.4549,-7.4552,-7.4999,-7.501,-7.5019,0,0,0,0,0,0,-7.4765,-7.4775,-7.4834,-7.4788,-7.4791,-7.4695,-7.473,-7.4708,-7.472,-7.4637,-7.4618,-7.4641,-7.4567,-7.4571,-7.4685,-7.4803,-7.4552,-7.4557,-7.4989,-7.5002,-7.5014,-7.5268,0,0,0,0,0,0,-7.4763,-7.4776,-7.4851,-7.4792,-7.4795,-7.4941,-7.4737,-7.4713,-7.473,-7.4707,-7.4661,-7.4645,-7.4561,-7.4678,-7.4691,-7.4806,-7.4562,-7.4978,-7.4995,-7.501,-7.5248,-7.5288,-7.5321,0,0,0,0,0,-7.476,-7.4925,-7.4856,-7.4866,-7.4886,-7.4948,-7.495,-7.4848,-7.4741,-7.4815,-7.4761,-7.4647,-7.4789,-7.4692,-7.4705,-7.4823,-7.497,-7.499,-7.5009,-7.5232,-7.528,-7.5321,0,0,0,0,0,0,-7.5002,-7.4915,-7.4837,-7.4988,-7.4977,-7.4909,-7.4999,-7.4903,-7.4923,-7.49,-7.4774,-7.4765,-7.4898,-7.4872,-7.4766,-7.5013,-7.486,-7.4883,-7.5025,-7.507,-7.5106,-7.5108,-7.4567,0,0,0,0,0,-7.5073,-7.513,-7.5051,-7.5192,-7.519,-7.5097,-7.512,-7.5042,-7.5026,-7.5021,-7.4976,-7.4966,-7.5007,-7.5037,-7.5071,-7.5244,-7.523,-7.5332,-7.5369,-7.5399,-7.542,-7.5508,-7.5552,-7.5083,-7.5083,-7.5082,0,0,-7.522,-7.5179,-7.5223,-7.524,-7.5222,-7.5284,-7.5094,-7.5168,-7.5213,-7.5032,-7.5136,-7.5104,-7.5084,-7.5229,-7.529,-7.5211,-7.5547,-7.5424,-7.5449,-7.5453,-7.5533,-7.5577,-7.5617,-7.5096,-7.5094,-7.5092,0,0,-7.5518,-7.5495,-7.5608,-7.5594,-7.5569,-7.5505,-7.5533,-7.548,-7.545,-7.5553,-7.5418,-7.5471,-7.5546,-7.5536,-7.5542,-7.5837,-7.5732,-7.5852,-7.6042,-7.613,-7.6167,-7.6199,-7.6303,-7.6341,-7.5874,-7.5875,-7.5875,0,-7.5704,-7.5791,-7.5679,-7.5761,-7.5772,-7.561,-7.5724,-7.5716,-7.5705,-7.5716,-7.5628,-7.5717,-7.5693,-7.5832,-7.5904,-7.5915,-7.5942,-7.5856,-7.617,-7.6201,-7.623,-7.6327,-7.6367,-7.5889,-7.5887,-7.5886,-7.5885,0,-7.602,-7.6083,-7.6178,-7.6168,-7.619,-7.6289,-7.6191,-7.6227,-7.6148,-7.6095,-7.6201,-7.6166,-7.6189,-7.6217,-7.6142,-7.6346,-7.6297,-7.6193,-7.6035,-7.6291,-7.638,-7.6417,-7.591,-7.5905,-7.59,-7.5897,0,0,-7.6469,-7.6396,-7.6432,-7.6425,-7.6386,-7.6432,-7.6524,-7.6545,-7.6577,-7.6576,-7.6648,-7.6715,-7.6617,-7.6624,-7.6546,-7.6623,-7.6857,-7.6507,-7.6505,-7.6572,-7.7078,-7.7156,-7.7201,-7.6788,-7.6795,-7.68,-7.7079,0,-7.6753,-7.6901,-7.6803,-7.6968,-7.7024,-7.6871,-7.695,-7.6936,-7.6888,-7.6929,-7.6877,-7.6926,-7.6794,-7.6796,-7.6866,-7.6814,-7.6957,-7.6793,-7.6854,-7.6858,-7.6861,-7.7248,-7.733,-7.7595,-7.7114,-7.712,-7.7124,0,-7.7103,-7.7114,-7.7285,-7.7232,-7.7252,-7.7325,-7.7335,-7.7377,-7.7357,-7.7317,-7.7325,-7.7227,-7.7313,-7.7161,-7.7277,-7.7168,-7.7188,-7.7166,-7.7174,-7.7174,-7.7005,-7.7256,-7.7677,-7.7717,-7.7178,-7.7174,-7.717,0,-7.741,-7.7469,-7.7577,-7.7576,-7.7519,-7.7573,-7.7552,-7.7524,-7.7543,-7.7554,-7.7564,-7.7586,-7.7598,-7.7618,-7.7529,-7.7426,-7.7657,-7.7497,-7.7625,-7.7628,-7.7679,-7.7676,-7.8107,-7.7697,-7.7696,-7.7695,-7.7695,0,-7.7736,-7.7846,-7.7714,-7.7781,-7.7899,-7.7786,-7.7906,-7.7869,-7.7846,-7.7903,-7.7774,-7.7831,-7.7711,-7.7757,-7.7688,-7.7794,-7.7802,-7.7772,-7.7752,-7.7781,-7.7785,-7.7791,-7.7769,-7.7706,-7.7704,-7.7701,-7.77,0,-7.8098,-7.8014,-7.8122,-7.8059,-7.8045,-7.8135,-7.8081,-7.8141,-7.8085,-7.8159,-7.817,-7.8084,-7.813,-7.8043,-7.808,-7.8033,-7.8182,-7.8135,-7.8188,-7.8173,-7.8305,-7.8293,-7.8752,-7.8806,-7.8365,-7.8369,-7.8373,0,-7.8309,-7.839,-7.8335,-7.8363,-7.8348,-7.8396,-7.8414,-7.8306,-7.833,-7.8314,-7.8376,-7.8411,-7.8433,-7.8514,-7.8455,-7.8482,-7.8433,-7.8592,-7.8436,-7.8463,-7.8432,-7.8428,-7.8434,-7.8623,-7.8629,-7.8633,-7.8637,0,-7.8694,-7.8648,-7.8677,-7.8694,-7.8718,-7.8726,-7.8725,-7.8756,-7.8642,-7.8676,-7.872,-7.8738,-7.8773,-7.881,-7.8823,-7.8802,-7.8701,-7.8687,-7.8717,-7.8747,-7.8774,-7.8759,-7.8273,-7.8676,-7.8672,-7.8669,-7.8667,-7.8665,-7.8984,-7.9048,-7.9018,-7.9056,-7.9043,-7.9045,-7.9097,-7.9047,-7.9082,-7.9101,-7.9036,-7.9096,-7.9074,-7.908,-7.9071,-7.9116,-7.9045,-7.9091,-7.9102,-7.9114,-7.9134,-7.8769,-7.9119,-7.9118,-7.9116,-7.9115,-7.9115,0,-7.9359,-7.9332,-7.9368,-7.9369,-7.9399,-7.9301,-7.9294,-7.9326,-7.9379,-7.9367,-7.9391,-7.9442,-7.9477,-7.9421,-7.9447,-7.9494,-7.9449,-7.9505,-7.9499,-7.9495,-7.9197,-7.9166,-7.9541,-7.9541,-7.9541,-7.9541,-7.9541,-7.9541,-7.9557,-7.9659,-7.961,-7.9704,-7.9677,-7.9733,-7.9737,-7.9738,-7.9727,-7.979,-7.9817,-7.978,-7.975,-7.9772,-7.9801,-7.9783,-7.9798,-7.987,-7.9837,-7.9558,-7.9516,-7.9477,-7.9447,-7.9874,-7.9875,-8.013,-8.0132,-8.0134]},{"header":{"parameterUnit":"m.s-1","parameterCategory":1,"la1":30.2991,"la2":30.254,"lo1":-89.0895,"lo2":-89.0444,"dy":0.0017,"dx":0.0017,"nx":28,"ny":28,"refTime":"2025-02-23T03:00:00:Z","depth":0,"parameterNumber":3,"parameterNumberName":"V-component_of_WINDS"},"data":[0,0,0,0,0,0,0,0,0,0,0,0,0,0,0,0,0,0,0,0,0,0,0,0,0,0,0,0,0,0,0,0,0,0,0,0,0,0,0,0,0,0,0,0,0,0,0,0,0,0,0,0,0,0,0,0,0,0,-1.5359,-1.536,0,-1.5406,-1.5407,-1.5407,-1.5437,-1.5438,-1.5438,-1.5438,-1.5485,-1.5486,-1.5487,0,0,0,0,0,0,0,0,0,0,0,0,0,-1.5294,-1.5295,-1.5359,-1.536,-1.536,-1.5406,-1.5407,-1.5407,-1.5437,-1.5438,-1.5438,-1.5438,-1.5485,-1.5486,-1.5488,0,0,0,0,0,0,0,0,0,0,0,0,0,-1.5329,-1.5295,-1.5359,-1.5381,-1.5383,-1.5406,-1.5407,-1.5407,-1.5437,-1.5438,-1.5438,-1.5438,-1.5485,-1.5486,-1.5488,-1.5492,0,0,-1.5493,-1.5493,0,0,0,0,0,0,0,0,-1.5327,-1.5332,-1.5377,-1.5379,-1.5382,-1.5416,-1.5401,-1.5436,-1.5437,-1.5417,-1.5438,-1.5438,-1.5462,-1.5466,-1.5474,-1.5494,-1.5496,-1.5493,-1.5494,-1.5494,-1.5495,0,0,0,0,0,0,0,-1.5325,-1.533,-1.5378,-1.5378,-1.5381,-1.5388,-1.5393,-1.5408,-1.5437,-1.5419,-1.5421,-1.5426,-1.5463,-1.5472,-1.5475,-1.5497,-1.5493,-1.5494,-1.5495,-1.5496,-1.5521,-1.5521,0,0,0,0,0,0,-1.5319,-1.5328,-1.5376,-1.5379,-1.5355,-1.5389,-1.5395,-1.5405,-1.5437,-1.5442,-1.5426,-1.5427,-1.5469,-1.5473,-1.5477,-1.5483,-1.5494,-1.5496,-1.5497,-1.5522,-1.5521,-1.5521,0,0,0,0,0,0,-1.5318,-1.5323,-1.5374,-1.5354,-1.5361,-1.5389,-1.5401,-1.5406,-1.5414,-1.5443,-1.5448,-1.5429,-1.547,-1.5474,-1.5488,-1.5485,-1.5497,-1.5498,-1.5522,-1.5521,-1.5521,-1.5495,0,0,0,0,0,0,-1.5316,-1.5323,-1.5325,-1.5354,-1.5362,-1.5385,-1.5401,-1.5406,-1.5417,-1.542,-1.5447,-1.5452,-1.547,-1.5485,-1.5489,-1.5487,-1.5499,-1.5522,-1.5522,-1.5521,-1.5496,-1.5494,-1.5492,0,0,0,0,0,-1.5313,-1.5316,-1.5325,-1.5331,-1.5366,-1.5385,-1.5389,-1.541,-1.5417,-1.5419,-1.5437,-1.5451,-1.5484,-1.5486,-1.5491,-1.5489,-1.5523,-1.5522,-1.5521,-1.5497,-1.5494,-1.5492,0,0,0,0,0,0,-1.5287,-1.532,-1.5331,-1.5343,-1.5361,-1.539,-1.5394,-1.5407,-1.5423,-1.5424,-1.5449,-1.5455,-1.5465,-1.5479,-1.548,-1.5494,-1.5505,-1.5505,-1.5485,-1.5482,-1.548,-1.5476,-1.5501,0,0,0,0,0,-1.5282,-1.5295,-1.5324,-1.5332,-1.534,-1.5365,-1.5374,-1.5389,-1.5408,-1.5415,-1.5434,-1.5452,-1.5466,-1.5475,-1.549,-1.5498,-1.5504,-1.55,-1.5497,-1.5495,-1.5495,-1.5498,-1.5496,-1.5519,-1.5519,-1.5519,0,0,-1.5273,-1.5293,-1.53,-1.5327,-1.5342,-1.5354,-1.5371,-1.5384,-1.5392,-1.5417,-1.543,-1.5445,-1.5466,-1.5476,-1.5482,-1.5488,-1.549,-1.5494,-1.5492,-1.5493,-1.5498,-1.5495,-1.5493,-1.5518,-1.5518,-1.5518,0,0,-1.5263,-1.528,-1.5288,-1.5302,-1.5325,-1.5341,-1.5343,-1.537,-1.538,-1.5394,-1.5412,-1.5422,-1.5447,-1.5461,-1.5471,-1.5463,-1.5477,-1.5468,-1.5455,-1.5458,-1.5457,-1.5455,-1.5451,-1.545,-1.5467,-1.5467,-1.5467,0,-1.5249,-1.5268,-1.529,-1.5301,-1.5311,-1.5334,-1.5341,-1.5354,-1.5381,-1.5387,-1.5394,-1.5424,-1.544,-1.5453,-1.545,-1.5459,-1.546,-1.5465,-1.5455,-1.5454,-1.5453,-1.5449,-1.5448,-1.5466,-1.5466,-1.5466,-1.5466,0,-1.5249,-1.5262,-1.5265,-1.5289,-1.5301,-1.531,-1.5332,-1.534,-1.5353,-1.5368,-1.5381,-1.5401,-1.5419,-1.5423,-1.5436,-1.5437,-1.544,-1.5451,-1.5462,-1.5449,-1.5446,-1.5445,-1.5464,-1.5465,-1.5465,-1.5465,0,0,-1.5224,-1.5259,-1.526,-1.527,-1.5296,-1.5306,-1.5315,-1.5333,-1.5339,-1.5356,-1.5364,-1.5383,-1.5392,-1.5404,-1.5418,-1.5421,-1.5412,-1.5431,-1.5432,-1.5426,-1.5412,-1.5404,-1.5402,-1.5421,-1.5421,-1.5421,-1.541,0,-1.5217,-1.5235,-1.5254,-1.5265,-1.5277,-1.5297,-1.5305,-1.5321,-1.5335,-1.5346,-1.5361,-1.5374,-1.5385,-1.5392,-1.5396,-1.5412,-1.5409,-1.5413,-1.5427,-1.5427,-1.542,-1.5401,-1.5392,-1.5381,-1.5409,-1.5409,-1.5409,0,-1.5212,-1.5227,-1.5239,-1.5262,-1.5267,-1.5274,-1.529,-1.5301,-1.5319,-1.5329,-1.534,-1.5355,-1.5365,-1.5375,-1.5387,-1.539,-1.5396,-1.5405,-1.5405,-1.5406,-1.5417,-1.5401,-1.5379,-1.5377,-1.5408,-1.5408,-1.5408,0,-1.5191,-1.5214,-1.5224,-1.5233,-1.526,-1.5264,-1.5275,-1.5293,-1.5302,-1.5316,-1.5322,-1.5337,-1.5346,-1.5357,-1.5375,-1.5381,-1.5385,-1.5397,-1.5392,-1.5392,-1.5392,-1.5392,-1.537,-1.5398,-1.5398,-1.5398,-1.5398,0,-1.5181,-1.5187,-1.5215,-1.5221,-1.5228,-1.5249,-1.5255,-1.5268,-1.5284,-1.5292,-1.531,-1.5317,-1.5342,-1.5351,-1.5365,-1.5373,-1.5377,-1.5384,-1.5387,-1.5382,-1.5381,-1.5386,-1.5387,-1.5397,-1.5397,-1.5397,-1.5398,0,-1.5159,-1.5179,-1.519,-1.5214,-1.522,-1.5224,-1.5244,-1.525,-1.5265,-1.5274,-1.5278,-1.53,-1.5312,-1.5331,-1.5349,-1.5359,-1.5363,-1.5369,-1.5357,-1.5359,-1.5352,-1.5352,-1.5333,-1.533,-1.536,-1.536,-1.536,0,-1.5152,-1.5157,-1.5181,-1.5187,-1.5198,-1.5208,-1.5217,-1.5237,-1.5245,-1.5265,-1.5268,-1.5281,-1.5293,-1.531,-1.5328,-1.5341,-1.5347,-1.5339,-1.5349,-1.5343,-1.5346,-1.5345,-1.5344,-1.5337,-1.5337,-1.5336,-1.5336,0,-1.5135,-1.5143,-1.5155,-1.5169,-1.5179,-1.5191,-1.5205,-1.5209,-1.5232,-1.524,-1.5252,-1.5261,-1.5278,-1.529,-1.5305,-1.5316,-1.5329,-1.5332,-1.5332,-1.5326,-1.5318,-1.532,-1.5349,-1.5333,-1.5333,-1.5333,-1.5334,-1.5334,-1.5119,-1.5124,-1.5141,-1.5153,-1.5165,-1.5176,-1.5182,-1.5196,-1.5207,-1.5222,-1.5233,-1.5244,-1.526,-1.5281,-1.5291,-1.5299,-1.5306,-1.5305,-1.5305,-1.5304,-1.5301,-1.5317,-1.5303,-1.5303,-1.5303,-1.5303,-1.5303,0,-1.5103,-1.5114,-1.5125,-1.5142,-1.5151,-1.5162,-1.5176,-1.5183,-1.5192,-1.5206,-1.5216,-1.5229,-1.524,-1.5258,-1.527,-1.5273,-1.5279,-1.5276,-1.5275,-1.5277,-1.5296,-1.5295,-1.527,-1.527,-1.527,-1.527,-1.527,-1.527,-1.5095,-1.5103,-1.5113,-1.5126,-1.5137,-1.5148,-1.5155,-1.5165,-1.5176,-1.5189,-1.5198,-1.5209,-1.5224,-1.5237,-1.5248,-1.5252,-1.5256,-1.525,-1.5256,-1.5273,-1.5276,-1.5279,-1.5278,-1.525,-1.525,-1.5237,-1.5237,-1.5236]}]]